Location: Croisilles
(50.1998°N, 2.8793°E)
Time: 13:36:26
(UTC+00:00)

COSMOS 2455 - Pass Details

Date: 21 January 2021
Orbit: 901 x 908 km, 67.1° (Epoch: 27 February)

Event Time Altitude Azimuth Distance (km) Brightness Sun altitude
Rises 17:44:51 0° 203° (SSW) 3,520 6.5 -12.7°
Reaches altitude 10° 17:47:21 10° 200° (SSW) 2,584 5.7 -13.1°
Maximum altitude 17:53:17 65° 120° (ESE) 993 2.9 -14.0°
Enters shadow 17:58:22 15° 42° (NE) 2,278 4.5 -14.8°
